• In Belarus
  • List of Countries
  • For 7 days
  • Water Temperature
  • Satellite Maps
  • Weather Map
  • Weather Widgets
  • user-avatar
    Login

    Hourly Weather Herāt

    Today, 23 May, Wednesday

    Time Temperature Precipitation Wind Pressure Humidity
    00:00 +21°C° 0 mm 3 mps 681 mmHg 28%
    01:00 +20°C° 0 mm 3 mps 681 mmHg 29%
    02:00 +20°C° 0 mm 3 mps 681 mmHg 30%
    03:00 +19°C° 0 mm 3 mps 681 mmHg 30%
    04:00 +19°C° 0 mm 3 mps 681 mmHg 29%
    05:00 +20°C° 0 mm 3 mps 681 mmHg 27%
    06:00 +21°C° 0 mm 4 mps 682 mmHg 25%
    07:00 +22°C° 0 mm 4 mps 682 mmHg 23%
    08:00 +25°C° 0 mm 5 mps 682 mmHg 22%
    09:00 +26°C° 0 mm 7 mps 683 mmHg 20%
    10:00 +28°C° 0 mm 8 mps 683 mmHg 18%
    11:00 +28°C° 0 mm 8 mps 683 mmHg 17%
    12:00 +29°C° 0 mm 9 mps 683 mmHg 17%
    13:00 +29°C° 0 mm 9 mps 682 mmHg 17%
    14:00 +29°C° 0 mm 10 mps 682 mmHg 17%
    15:00 +29°C° 0 mm 10 mps 682 mmHg 17%
    16:00 +29°C° 0 mm 9 mps 681 mmHg 17%
    17:00 +28°C° 0 mm 9 mps 681 mmHg 19%
    18:00 +27°C° 0 mm 8 mps 681 mmHg 20%
    19:00 +26°C° 0 mm 8 mps 681 mmHg 21%
    20:00 +24°C° 0 mm 7 mps 681 mmHg 22%
    21:00 +24°C° 0 mm 7 mps 681 mmHg 23%
    22:00 +23°C° 0 mm 6 mps 681 mmHg 24%
    23:00 +22°C° 0 mm 6 mps 680 mmHg 25%

    Tomorrow, 24 May, Thursday

    Time Temperature Precipitation Wind Pressure Humidity
    00:00 +22°C° 0 mm 5 mps 680 mmHg 27%
    01:00 +21°C° 0 mm 5 mps 679 mmHg 28%
    02:00 +21°C° 0 mm 4 mps 679 mmHg 29%
    03:00 +20°C° 0 mm 4 mps 679 mmHg 29%
    04:00 +20°C° 0 mm 4 mps 679 mmHg 30%
    05:00 +21°C° 0 mm 5 mps 679 mmHg 28%
    06:00 +22°C° 0 mm 6 mps 679 mmHg 26%
    07:00 +23°C° 0 mm 7 mps 680 mmHg 25%
    08:00 +24°C° 0 mm 7 mps 680 mmHg 22%
    09:00 +27°C° 0 mm 8 mps 680 mmHg 20%
    10:00 +28°C° 0 mm 9 mps 680 mmHg 17%
    11:00 +29°C° 0 mm 9 mps 680 mmHg 17%
    12:00 +31°C° 0 mm 10 mps 680 mmHg 16%
    13:00 +32°C° 0 mm 10 mps 679 mmHg 15%
    14:00 +31°C° 0 mm 10 mps 679 mmHg 15%
    15:00 +31°C° 0 mm 10 mps 679 mmHg 15%
    16:00 +31°C° 0 mm 11 mps 678 mmHg 15%
    17:00 +29°C° 0 mm 10 mps 678 mmHg 16%
    18:00 +28°C° 0 mm 9 mps 678 mmHg 17%
    19:00 +27°C° 0 mm 9 mps 678 mmHg 18%
    20:00 +26°C° 0 mm 8 mps 678 mmHg 20%
    21:00 +24°C° 0 mm 8 mps 678 mmHg 22%
    22:00 +23°C° 0 mm 7 mps 678 mmHg 23%
    23:00 +23°C° 0 mm 7 mps 678 mmHg 24%

    Day after tomorrow, 25 May, Friday

    Time Temperature Precipitation Wind Pressure Humidity
    00:00 +22°C° 0 mm 6 mps 677 mmHg 25%
    01:00 +21°C° 0 mm 5 mps 677 mmHg 25%
    02:00 +21°C° 0 mm 5 mps 677 mmHg 26%
    03:00 +20°C° 0 mm 5 mps 677 mmHg 27%
    04:00 +20°C° 0 mm 5 mps 676 mmHg 27%
    05:00 +21°C° 0 mm 5 mps 677 mmHg 26%
    06:00 +22°C° 0 mm 5 mps 677 mmHg 25%
    07:00 +23°C° 0 mm 5 mps 678 mmHg 23%
    08:00 +25°C° 0 mm 5 mps 678 mmHg 22%
    09:00 +27°C° 0 mm 5 mps 678 mmHg 20%
    10:00 +29°C° 0 mm 5 mps 678 mmHg 18%
    11:00 +29°C° 0 mm 5 mps 678 mmHg 17%
    12:00 +30°C° 0 mm 6 mps 678 mmHg 17%
    13:00 +32°C° 0 mm 6 mps 678 mmHg 16%
    14:00 +32°C° 0 mm 6 mps 678 mmHg 16%
    15:00 +32°C° 0 mm 6 mps 678 mmHg 16%
    16:00 +32°C° 0 mm 6 mps 677 mmHg 16%
    17:00 +30°C° 0 mm 6 mps 677 mmHg 17%
    18:00 +29°C° 0 mm 5 mps 677 mmHg 18%
    19:00 +28°C° 0 mm 5 mps 677 mmHg 19%
    20:00 +27°C° 0 mm 4 mps 678 mmHg 20%
    21:00 +26°C° 0 mm 3 mps 678 mmHg 21%
    22:00 +25°C° 0 mm 3 mps 678 mmHg 22%
    23:00 +24°C° 0 mm 2 mps 678 mmHg 23%

    26 May, Saturday

    Time Temperature Precipitation Wind Pressure Humidity
    00:00 +24°C° 0 mm 2 mps 677 mmHg 23%
    01:00 +23°C° 0 mm 2 mps 677 mmHg 23%
    02:00 +23°C° 0 mm 2 mps 677 mmHg 24%
    03:00 +22°C° 0 mm 1 mps 677 mmHg 25%
    04:00 +21°C° 0 mm 1 mps 677 mmHg 26%
    05:00 +23°C° 0 mm 1 mps 677 mmHg 24%
    06:00 +24°C° 0 mm 1 mps 678 mmHg 22%
    07:00 +26°C° 0 mm 1 mps 678 mmHg 20%
    08:00 +27°C° 0 mm 1 mps 678 mmHg 18%
    09:00 +28°C° 0 mm 1 mps 679 mmHg 16%
    10:00 +30°C° 0 mm 1 mps 679 mmHg 13%
    11:00 +31°C° 0 mm 2 mps 679 mmHg 12%
    12:00 +32°C° 0 mm 2 mps 679 mmHg 10%
    13:00 +34°C° 0 mm 3 mps 679 mmHg 9%
    14:00 +34°C° 0 mm 3 mps 678 mmHg 9%
    15:00 +34°C° 0 mm 3 mps 678 mmHg 8%
    16:00 +34°C° 0 mm 4 mps 678 mmHg 8%
    17:00 +33°C° 0 mm 3 mps 678 mmHg 10%
    18:00 +31°C° 0 mm 2 mps 678 mmHg 12%
    19:00 +29°C° 0 mm 2 mps 678 mmHg 14%
    20:00 +29°C° 0 mm 2 mps 678 mmHg 14%
    21:00 +28°C° 0 mm 2 mps 678 mmHg 14%
    22:00 +27°C° 0 mm 2 mps 678 mmHg 14%
    23:00 +27°C° 0 mm 2 mps 678 mmHg 15%

    27 May, Sunday

    Time Temperature Precipitation Wind Pressure Humidity
    00:00 +26°C° 0 mm 2 mps 678 mmHg 15%
    01:00 +25°C° 0 mm 2 mps 678 mmHg 16%
    02:00 +25°C° 0 mm 2 mps 678 mmHg 16%
    03:00 +24°C° 0 mm 2 mps 678 mmHg 16%
    04:00 +24°C° 0 mm 2 mps 678 mmHg 17%
    05:00 +25°C° 0 mm 2 mps 678 mmHg 15%
    06:00 +27°C° 0 mm 2 mps 679 mmHg 14%
    07:00 +28°C° 0 mm 2 mps 680 mmHg 13%
    08:00 +30°C° 0 mm 3 mps 680 mmHg 12%
    09:00 +32°C° 0 mm 4 mps 680 mmHg 11%
    10:00 +34°C° 0 mm 5 mps 681 mmHg 10%
    11:00 +35°C° 0 mm 6 mps 681 mmHg 10%
    12:00 +35°C° 0 mm 7 mps 681 mmHg 10%
    13:00 +36°C° 0 mm 7 mps 681 mmHg 11%
    14:00 +37°C° 0 mm 8 mps 680 mmHg 11%
    15:00 +35°C° 0 mm 8 mps 680 mmHg 11%
    16:00 +35°C° 0 mm 9 mps 680 mmHg 12%
    17:00 +34°C° 0 mm 10 mps 680 mmHg 16%
    18:00 +32°C° 0 mm 10 mps 680 mmHg 21%
    19:00 +29°C° 0 mm 11 mps 681 mmHg 25%
    20:00 +28°C° 0 mm 11 mps 681 mmHg 30%
    21:00 +27°C° 0 mm 11 mps 682 mmHg 35%
    22:00 +26°C° 0 mm 11 mps 682 mmHg 39%
    23:00 +24°C° 0 mm 11 mps 682 mmHg 42%

    28 May, Monday

    Time Temperature Precipitation Wind Pressure Humidity
    00:00 +23°C° 0 mm 11 mps 682 mmHg 45%
    01:00 +22°C° 0 mm 11 mps 682 mmHg 48%
    02:00 +21°C° 0 mm 10 mps 682 mmHg 49%
    03:00 +21°C° 0 mm 10 mps 682 mmHg 51%
    04:00 +19°C° 0 mm 10 mps 682 mmHg 53%
    05:00 +21°C° 0 mm 10 mps 682 mmHg 52%
    06:00 +21°C° 0 mm 10 mps 683 mmHg 50%
    07:00 +21°C° 0 mm 10 mps 683 mmHg 49%
    08:00 +23°C° 0 mm 10 mps 684 mmHg 44%
    09:00 +24°C° 0 mm 11 mps 684 mmHg 40%
    10:00 +26°C° 0 mm 11 mps 684 mmHg 35%
    11:00 +26°C° 0 mm 11 mps 684 mmHg 33%
    12:00 +27°C° 0 mm 11 mps 683 mmHg 31%
    13:00 +28°C° 0 mm 11 mps 683 mmHg 28%
    14:00 +27°C° 0 mm 11 mps 682 mmHg 27%
    15:00 +27°C° 0 mm 11 mps 682 mmHg 26%
    16:00 +27°C° 0 mm 11 mps 682 mmHg 24%
    17:00 +24°C° 0 mm 10 mps 682 mmHg 24%
    18:00 +23°C° 0 mm 9 mps 681 mmHg 23%
    19:00 +22°C° 0 mm 9 mps 681 mmHg 23%
    20:00 +21°C° 0 mm 8 mps 681 mmHg 22%
    21:00 +20°C° 0 mm 8 mps 681 mmHg 21%
    22:00 +18°C° 0 mm 7 mps 681 mmHg 21%
    23:00 +18°C° 0 mm 7 mps 680 mmHg 21%
    Show more